DW6558 Weather Reports


Display with metric or nautical units.
time (UTC)temp
F
wind
direction
speed
MPH
gust
MPH
rain 1hr
in
rain 24hr
in
rain mn
in
humidity
%
barometer
mb
20260502221309 67 194 2.0 7.0 0.00 0.00 0.00 16 932.0
20260502220807 67 218 6.0 13.0 0.00 0.00 0.00 17 932.3
20260502220302 67 330 0.0 10.0 0.00 0.00 0.00 16 932.4
20260502215759 68 329 10.0 11.0 0.00 0.00 0.00 17 932.6
20260502215256 67 221 4.0 10.0 0.00 0.00 0.00 16 932.8
20260502214753 66 342 0.0 10.0 0.00 0.00 0.00 16 932.7
20260502214250 67 331 1.0 13.0 0.00 0.00 0.00 17 932.9
20260502213748 68 247 3.0 9.0 0.00 0.00 0.00 17 933.1
20260502213245 67 7 0.0 0.0 0.00 0.00 0.00 16 932.9
20260502212744 66 246 1.0 8.0 0.00 0.00 0.00 17 933.1
20260502212241 68 291 0.0 2.0 0.00 0.00 0.00 16 933.2
20260502211737 67 248 9.0 13.0 0.00 0.00 0.00 16 933.3
20260502211234 66 219 0.0 0.0 0.00 0.00 0.00 17 933.2
20260502210731 66 342 1.0 8.0 0.00 0.00 0.00 18 933.3
20260502210228 68 197 3.0 7.0 0.00 0.00 0.00 17 933.3
20260502205726 66 293 5.0 16.0 0.00 0.00 0.00 17 933.4
20260502205222 66 12 3.0 7.0 0.00 0.00 0.00 17 933.5
20260502204719 68 219 4.0 10.0 0.00 0.00 0.00 17 933.5
20260502204217 66 25 3.0 9.0 0.00 0.00 0.00 18 933.5
20260502203714 65 120 3.0 5.0 0.00 0.00 0.00 19 933.5
20260502203212 65 138 0.0 5.0 0.00 0.00 0.00 18 933.7
20260502202706 65 247 5.0 6.0 0.00 0.00 0.00 19 933.7
20260502202204 66 316 3.0 8.0 0.00 0.00 0.00 19 933.9
20260502201701 65 343 3.0 5.0 0.00 0.00 0.00 18 933.9
20260502201158 64 320 2.0 9.0 0.00 0.00 0.00 18 934.0
20260502200653 65 271 3.0 6.0 0.00 0.00 0.00 18 934.0
20260502200150 66 313 3.0 6.0 0.00 0.00 0.00 19 934.0
20260502195648 67 276 9.0 15.0 0.00 0.00 0.00 17 933.9
20260502195144 64 33 0.0 5.0 0.00 0.00 0.00 18 934.0
20260502194641 64 235 3.0 7.0 0.00 0.00 0.00 17 933.9
20260502194138 65 264 5.0 9.0 0.00 0.00 0.00 19 934.1
20260502193634 66 251 7.0 9.0 0.00 0.00 0.00 18 934.2
20260502193131 66 260 3.0 8.0 0.00 0.00 0.00 19 934.2
20260502192627 64 212 2.0 8.0 0.00 0.00 0.00 18 934.2
20260502192125 63 191 0.0 7.0 0.00 0.00 0.00 17 934.5
20260502191621 64 312 8.0 10.0 0.00 0.00 0.00 19 934.3
20260502191119 64 337 6.0 9.0 0.00 0.00 0.00 19 934.4
20260502190616 63 321 4.0 9.0 0.00 0.00 0.00 19 934.7
20260502190114 62 14 1.0 8.0 0.00 0.00 0.00 19 934.4
20260502185608 64 246 5.0 7.0 0.00 0.00 0.00 20 934.7
20260502185106 63 267 5.0 11.0 0.00 0.00 0.00 19 934.7
20260502184602 64 175 4.0 7.0 0.00 0.00 0.00 20 934.7
20260502184057 63 328 9.0 10.0 0.00 0.00 0.00 21 934.8
20260502183554 61 179 0.0 2.0 0.00 0.00 0.00 22 934.7
20260502183050 60 9 7.0 10.0 0.00 0.00 0.00 21 935.1
20260502182545 62 16 5.0 9.0 0.00 0.00 0.00 20 934.9
20260502182041 63 44 0.0 0.0 0.00 0.00 0.00 21 935.0
20260502181539 63 255 5.0 7.0 0.00 0.00 0.00 19 935.1
20260502181038 64 337 4.0 8.0 0.00 0.00 0.00 20 935.2
20260502180534 64 246 0.0 0.0 0.00 0.00 0.00 19 935.2
20260502170453 62 75 0.0 2.0 0.00 0.00 0.00 21 935.5
20260502163931 59 211 0.0 3.0 0.00 0.00 0.00 27 935.7
20260502163427 59 92 0.0 2.0 0.00 0.00 0.00 26 935.7
20260502162926 58 309 5.0 6.0 0.00 0.00 0.00 26 935.5
20260502162422 57 177 1.0 3.0 0.00 0.00 0.00 26 935.5
20260502161919 57 330 0.0 2.0 0.00 0.00 0.00 27 935.6
20260502161415 56 299 0.0 6.0 0.00 0.00 0.00 28 935.6
20260502160913 56 355 0.0 5.0 0.00 0.00 0.00 27 935.7
20260502160411 55 356 0.0 3.0 0.00 0.00 0.00 29 935.8
20260502151849 52 51 0.0 0.0 0.00 0.00 0.00 36 936.0
20260502151345 51 71 0.0 0.0 0.00 0.00 0.00 37 936.0
20260502150843 50 127 0.0 0.0 0.00 0.00 0.00 39 935.9
20260502150339 50 80 0.0 0.0 0.00 0.00 0.00 39 936.1
20260502130727 31 123 3.0 6.0 0.00 0.00 0.00 68 935.8
20260502130225 30 107 3.0 6.0 0.00 0.00 0.00 68 935.7
20260502123711 29 120 3.0 5.0 0.00 0.00 0.00 70 935.5
20260502123208 29 127 3.0 7.0 0.00 0.00 0.00 70 935.5
20260502122704 29 124 4.0 6.0 0.00 0.00 0.00 70 935.5
20260502122200 29 110 3.0 5.0 0.00 0.00 0.00 70 935.5
20260502121659 29 135 3.0 7.0 0.00 0.00 0.00 70 935.2
20260502121156 29 128 5.0 7.0 0.00 0.00 0.00 70 935.6
20260502120653 29 141 5.0 5.0 0.00 0.00 0.00 71 935.5
20260502120150 28 118 3.0 3.0 0.00 0.00 0.00 72 935.3
20260502115647 28 110 2.0 3.0 0.00 0.00 0.00 72 935.2
20260502115143 28 112 2.0 5.0 0.00 0.00 0.00 72 935.5
20260502114640 28 123 5.0 6.0 0.00 0.00 0.00 72 935.3
20260502114137 28 114 3.0 6.0 0.00 0.00 0.00 71 935.5
20260502113634 29 119 4.0 5.0 0.00 0.00 0.00 70 935.5
20260502113132 29 98 2.0 3.0 0.00 0.00 0.00 70 935.2
20260502112630 29 124 3.0 5.0 0.00 0.00 0.00 70 935.6
20260502112127 29 133 4.0 7.0 0.00 0.00 0.00 70 935.2
20260502111624 29 120 3.0 3.0 0.00 0.00 0.00 69 935.3
20260502111122 29 119 3.0 3.0 0.00 0.00 0.00 69 935.3
20260502110619 30 120 3.0 5.0 0.00 0.00 0.00 68 935.6
20260502110117 29 115 2.0 5.0 0.00 0.00 0.00 69 935.7
20260502105614 30 124 4.0 5.0 0.00 0.00 0.00 68 935.5
20260502105111 30 120 3.0 5.0 0.00 0.00 0.00 68 935.6
20260502104608 30 147 4.0 9.0 0.00 0.00 0.00 68 935.2
20260502104105 30 127 5.0 7.0 0.00 0.00 0.00 68 935.5
20260502103603 29 127 5.0 6.0 0.00 0.00 0.00 68 935.3
20260502103101 30 105 3.0 5.0 0.00 0.00 0.00 68 935.0
20260502102557 30 118 3.0 6.0 0.00 0.00 0.00 68 935.3
20260502102054 30 119 3.0 5.0 0.00 0.00 0.00 67 935.2
20260502101552 30 128 4.0 6.0 0.00 0.00 0.00 67 935.1
20260502101050 30 126 5.0 7.0 0.00 0.00 0.00 67 935.2
20260502100548 30 126 6.0 7.0 0.00 0.00 0.00 67 935.0
20260502091523 31 141 5.0 7.0 0.00 0.00 0.00 65 935.0
20260502091020 31 128 5.0 6.0 0.00 0.00 0.00 65 935.2
20260502090517 31 107 2.0 3.0 0.00 0.00 0.00 64 935.2
20260502071412 34 128 3.0 5.0 0.00 0.00 0.00 61 935.3
20260502070910 34 140 3.0 6.0 0.00 0.00 0.00 61 935.3
20260502070407 35 127 3.0 6.0 0.00 0.00 0.00 61 935.2
20260502065906 35 133 0.0 0.0 0.00 0.00 0.00 59 935.2
20260502065404 36 126 0.0 0.0 0.00 0.00 0.00 56 934.8
20260502064902 37 115 0.0 0.0 0.00 0.00 0.00 54 935.0
20260502064359 35 104 0.0 0.0 0.00 0.00 0.00 56 935.0
20260502063856 35 103 0.0 1.0 0.00 0.00 0.00 57 934.8
20260502063354 37 71 0.0 0.0 0.00 0.00 0.00 56 935.1
20260502062851 38 119 0.0 0.0 0.00 0.00 0.00 51 934.8
20260502062348 37 138 0.0 7.0 0.00 0.00 0.00 52 934.8
20260502061847 36 122 0.0 1.0 0.00 0.00 0.00 57 934.9
20260502061345 37 107 0.0 0.0 0.00 0.00 0.00 53 934.7
20260502060840 37 137 0.0 6.0 0.00 0.00 0.00 51 934.9
20260502060335 38 128 4.0 6.0 0.00 0.00 0.00 49 934.9
20260502055833 38 129 3.0 7.0 0.00 0.00 0.00 48 934.9
20260502055331 38 118 5.0 7.0 0.00 0.00 0.00 46 935.0
20260502054831 37 107 3.0 7.0 0.00 0.00 0.00 47 934.8
20260502054328 37 65 0.0 0.0 0.00 0.00 0.00 51 934.7
20260502053825 38 103 0.0 1.0 0.00 0.00 0.00 51 934.5
20260502053322 38 130 3.0 7.0 0.00 0.00 0.00 51 934.4
20260502052820 38 110 2.0 5.0 0.00 0.00 0.00 50 934.8
20260502052318 38 127 4.0 6.0 0.00 0.00 0.00 50 934.5
20260502051815 39 142 3.0 7.0 0.00 0.00 0.00 50 934.7
20260502051314 39 122 4.0 8.0 0.00 0.00 0.00 49 934.5
20260502050809 39 136 6.0 7.0 0.00 0.00 0.00 49 934.5
20260502050306 40 132 5.0 8.0 0.00 0.00 0.00 47 934.3
20260502045803 39 131 7.0 9.0 0.00 0.00 0.00 48 934.9
20260502045300 40 133 6.0 9.0 0.00 0.00 0.00 48 934.7
20260502044757 40 130 6.0 8.0 0.00 0.00 0.00 47 934.4
20260502044253 40 131 6.0 7.0 0.00 0.00 0.00 46 934.4
20260502043750 41 141 4.0 8.0 0.00 0.00 0.00 45 934.5
20260502043248 41 112 6.0 8.0 0.00 0.00 0.00 44 934.4
20260502042747 41 133 4.0 8.0 0.00 0.00 0.00 43 934.8
20260502042245 41 130 0.0 3.0 0.00 0.00 0.00 42 934.4
20260502041742 40 65 0.0 0.0 0.00 0.00 0.00 46 934.4
20260502041240 40 57 0.0 0.0 0.00 0.00 0.00 45 934.7
20260502040736 41 62 0.0 0.0 0.00 0.00 0.00 44 934.5
20260502040233 40 64 0.0 0.0 0.00 0.00 0.00 44 934.3
20260502035729 41 70 0.0 0.0 0.00 0.00 0.00 43 934.2
20260502035226 41 52 0.0 0.0 0.00 0.00 0.00 44 934.2
20260502034723 42 53 0.0 0.0 0.00 0.00 0.00 42 934.0
20260502034222 41 55 0.0 0.0 0.00 0.00 0.00 44 934.1
20260502033719 41 47 0.0 0.0 0.00 0.00 0.00 44 933.9
20260502033217 44 33 0.0 0.0 0.00 0.00 0.00 44 933.9
20260502032713 46 102 0.0 0.0 0.00 0.00 0.00 35 933.5
20260502032209 46 93 0.0 0.0 0.00 0.00 0.00 36 933.6
20260502031708 47 102 0.0 0.0 0.00 0.00 0.00 33 933.5
20260502031205 48 126 0.0 0.0 0.00 0.00 0.00 33 933.6
20260502030704 48 118 0.0 1.0 0.00 0.00 0.00 34 933.4
20260502030201 48 119 1.0 6.0 0.00 0.00 0.00 33 933.5
20260502025658 48 137 6.0 7.0 0.00 0.00 0.00 33 933.4
20260502025156 50 141 2.0 5.0 0.00 0.00 0.00 32 933.4
20260502024654 50 115 4.0 6.0 0.00 0.00 0.00 30 933.3
20260502024152 51 131 1.0 3.0 0.00 0.00 0.00 28 933.6
20260502023649 52 133 3.0 5.0 0.00 0.00 0.00 27 933.3
20260502023146 53 128 0.0 0.0 0.00 0.00 0.00 25 933.4
20260502022643 53 107 0.0 5.0 0.00 0.00 0.00 25 933.1
20260502022140 54 91 5.0 7.0 0.00 0.00 0.00 24 933.2
20260502021638 54 103 7.0 7.0 0.00 0.00 0.00 24 933.3
20260502021135 55 108 6.0 7.0 0.00 0.00 0.00 23 933.2
20260502020632 55 111 6.0 10.0 0.00 0.00 0.00 23 933.2
20260502020129 56 110 7.0 9.0 0.00 0.00 0.00 23 933.2
20260502015627 55 104 5.0 8.0 0.00 0.00 0.00 23 933.5
20260502015123 56 109 7.0 8.0 0.00 0.00 0.00 23 933.7
20260502014620 57 100 6.0 9.0 0.00 0.00 0.00 22 933.4
20260502014117 57 106 7.0 8.0 0.00 0.00 0.00 20 933.3
20260502013613 57 102 5.0 9.0 0.00 0.00 0.00 21 933.6
20260502013109 57 96 10.0 10.0 0.00 0.00 0.00 21 933.4
20260502012607 57 81 7.0 8.0 0.00 0.00 0.00 22 933.4
20260502012105 58 78 7.0 7.0 0.00 0.00 0.00 22 933.3
20260502011601 57 80 3.0 7.0 0.00 0.00 0.00 22 933.5
20260502011057 58 79 9.0 14.0 0.00 0.00 0.00 21 933.6
20260502010554 58 102 9.0 10.0 0.00 0.00 0.00 22 933.6
20260502010050 58 93 7.0 10.0 0.00 0.00 0.00 22 933.4
20260502005548 58 113 8.0 11.0 0.00 0.00 0.00 21 933.7
20260502005046 58 129 7.0 11.0 0.00 0.00 0.00 20 933.9
20260502004541 58 131 7.0 9.0 0.00 0.00 0.00 20 933.6
20260502004038 59 79 0.0 3.0 0.00 0.00 0.00 21 933.6
20260502003537 59 52 3.0 8.0 0.00 0.00 0.00 21 933.6
20260502003033 59 110 4.0 7.0 0.00 0.00 0.00 21 933.7
20260502002529 59 101 10.0 11.0 0.00 0.00 0.00 21 933.5
20260502002027 58 103 7.0 13.0 0.00 0.00 0.00 20 933.5
20260502001524 58 99 5.0 9.0 0.00 0.00 0.00 20 933.6
20260502001021 58 100 7.0 15.0 0.00 0.00 0.00 20 933.5
20260502000520 59 117 8.0 10.0 0.00 0.00 0.00 20 933.5
20260502000016 59 81 5.0 8.0 0.00 0.00 0.00 20 933.4
20260501235512 59 75 6.0 11.0 0.00 0.00 0.00 20 933.4
20260501235008 58 137 6.0 9.0 0.00 0.00 0.00 20 933.5
20260501234504 59 109 8.0 10.0 0.00 0.00 0.00 21 933.4
20260501234003 59 49 7.0 11.0 0.00 0.00 0.00 22 933.6
20260501233500 59 62 2.0 5.0 0.00 0.00 0.00 19 933.5
20260501232955 59 135 8.0 15.0 0.00 0.00 0.00 19 933.5
20260501232453 59 61 8.0 11.0 0.00 0.00 0.00 21 933.5
20260501231950 59 133 8.0 14.0 0.00 0.00 0.00 21 933.5
20260501231448 59 112 4.0 6.0 0.00 0.00 0.00 22 933.6
20260501230946 59 116 9.0 13.0 0.00 0.00 0.00 22 933.9
20260501230445 59 94 2.0 5.0 0.00 0.00 0.00 22 933.6
20260501225942 59 103 5.0 14.0 0.00 0.00 0.00 22 933.4
20260501225440 58 72 2.0 11.0 0.00 0.00 0.00 21 933.3
20260501224935 58 128 6.0 8.0 0.00 0.00 0.00 21 933.5
20260501224433 58 105 9.0 15.0 0.00 0.00 0.00 20 933.4
20260501223930 58 51 2.0 10.0 0.00 0.00 0.00 22 933.3
20260501223426 58 47 6.0 13.0 0.00 0.00 0.00 20 933.6
20260501222921 58 81 5.0 9.0 0.00 0.00 0.00 22 933.6
20260501222419 58 8 5.0 9.0 0.00 0.00 0.00 20 933.5
20260501221915 57 84 4.0 10.0 0.00 0.00 0.00 21 933.6